Regional Weather Roundup
Issued by NWS Cleveland, OH

Home | Current Version | Previous Version | Graphics & Text | Print | Product List | Glossary On
Versions: 1 2 3 4 5 6 7 8 9 10 11 12 13 14 15 16 17 18 19 20 21 22 23 24 25 26 27 28 29 30 31 32 33 34 35 36 37 38 39 40 41 42 43 44 45 46 47 48 49 50
658
ASUS41 KCLE 240502
RWRCLE
OHIO REGIONAL WEATHER ROUNDUP
NATIONAL WEATHER SERVICE CLEVELAND, OH
100 AM EDT WED AUG 24 2016

NOTE: "FAIR" INDICATES FEW OR NO CLOUDS BELOW 12,000 FEET WITH NO
SIGNIFICANT WEATHER AND/OR OBSTRUCTIONS TO VISIBILITY.

OHZ001>008-015>018-024>027-034-035-043-044-240600-
   NORTHWEST OHIO

CITY           SKY/WX    TMP DP  RH WIND       PRES   REMARKS
DEFIANCE       CLEAR     67  59  75 S5        30.18F
FINDLAY        CLEAR     65  58  78 S5        30.19F
TOLEDO EXPRESS CLEAR     66  61  84 S3        30.18F
TOLEDO EXEC    CLEAR     66  61  84 SE5       30.19F
LIMA           CLEAR     63  60  90 S6        30.21F
$$

OHZ009>014-019>023-028>033-038-089-240600-
   NORTHEAST OHIO

CITY           SKY/WX    TMP DP  RH WIND       PRES   REMARKS
CLE-HOPKINS    PTCLDY    68  58  70 S3        30.24F
CLE-LAKEFRONT  CLEAR     71  59  65 SE8       30.21F
CUY CO. ARPT   NOT AVBL
LORAIN-ELYRIA  CLEAR     60  58  92 CALM      30.23F
ASHTABULA      CLEAR     59  59 100 CALM      30.25F
AKRON-CANTON   CLEAR     66  57  72 SE5       30.25F
WOOSTER        CLEAR     56  55  97 CALM      30.25F
MANSFIELD      PTCLDY    60  59  96 S5        30.24F
YOUNGSTOWN     CLEAR     59  57  93 CALM      30.26F
$$

OHZ042-051>053-060>062-070>072-077>081-240600-
  SOUTHWEST OHIO

CITY           SKY/WX    TMP DP  RH WIND       PRES   REMARKS
CINC-COVINGTON MOCLDY    68  61  78 S3        30.21S
CINC-LUNKEN    MOCLDY    64  64 100 CALM      30.21S
HAMILTON       MOCLDY    63  61  93 CALM      30.21F
DAYTON         CLOUDY    67  59  75 SE8       30.22F
WRIGHT-PAT AFB MOCLDY    67  60  76 CALM      30.21S
DAYTON GENERAL PTCLDY    69  58  67 SE6       30.20F
WILMINGTON     PTCLDY    64  60  87 SE5       30.22F
$$

OHZ036-037-039>041-045>050-054>059-063>069-073>076-082>088-240600-
  CENTRAL AND SOUTHEAST OHIO

CITY           SKY/WX    TMP DP  RH WIND       PRES   REMARKS
COLUMBUS       MOCLDY    66  60  81 CALM      30.21F
OSU AIRPORT    CLOUDY    65  60  84 CALM      30.22F
BOLTON FIELD   PTCLDY    61  60  94 CALM      30.23S
RICKENBACK AFB NOT AVBL
NEWARK         PTCLDY    60  59  96 CALM      30.23F
MARION         CLEAR     63  59  87 S5        30.22F
LANCASTER      PTCLDY    60  59  96 CALM      30.23F
ZANESVILLE     PTCLDY    63  61  93 CALM      30.24F
NEW PHILLY     CLEAR     62  58  86 CALM      30.24F
$$




USA.gov is the U.S. government's official web portal to all federal, state and local government web resources and services.